COSMOS 2251 DEB, 35705

Orbit data source: Space-Track

COSMOS 2251 DEB, 35705 is space debris in LEO originally from a launch on Wed, 16 Jun 1993 UTC launched from the Plesetsk Missile And Space Complex (PKMTR). The debris from Iridium 33, an American commercial communications satellite, has been tracked extensively since its accidental collision with the defunct Russian satellite Cosmos 2251 in 2009. This event, occurring at high speed in low Earth orbit (LEO), generated thousands of pieces of space debris, significantly increasing the risk of further collisions. The Iridium 33 debris cloud has impacted space traffic management and orbital debris mitigation strategies, making it a subject of ongoing study in space situational awareness.

Loading next visibility...
Identifier
35705, 1993-036AQA
Orbit
LEO
Country
Flag of CISCIS
Related business
Manufacturer
Unknown
Mission
Spacecraft
Bus & Motor
Unknown
Mass
Unknown
Launch date (UTC)
1993-06-16 (33 years ago)
Launch vehicle
Unknown
Launch site
Plesetsk Missile And Space Complex (PKMTR)
Object type
Payload
Rocket body
Debris
Shape & HBR
Unknown shape, 0.1 m
Radar Cross Section
Small (<0.1 m²)

Expand to show TLE details & history
Last TLE update: 8 hours ago

TLE from 8 hours ago
0 COSMOS 2251 DEB
1 35705U 93036AQA 26238.03434044  .00019733  00000-0  24993-2 0  9996
2 35705  74.2699   0.2437 0020778 230.0228 129.9127 14.81582305897110
Epoch: 2026-08-26T00:49Z
TLE epoch observation values (Epoch: 2026-08-26T00:49:27.014Z)
Latitude
0.00004°
Longitude
13.58802°
Altitude
636.368 km
Speed
7.535 km/s
True Right ascension
00h 00m 58s
True Declination
0° 00' 00"
Sunlit
Object was in full shadow at epoch
Visualization orbit readout
Latitude
Unknown
Longitude
Unknown
Altitude
Unknown
Speed
Unknown
Apparent Right ascension
Unknown
Apparent Declination
Unknown
Sunlit
N/A
Visualization observer readout
Local Sidereal Time
23:40:58
Azimuth
Unknown
Elevation
Unknown
Doppler factor
Unknown
Orbital elements
Apogee altitude
636.432 km
Perigee altitude
607.343 km
Semi-major axis
7,000.025 km
Eccentricity
0.00208
Inclination
74.2699°
RAAN
0.2437°
Arg. of periapsis
230.0228°
True anomaly
130.09502°
Mean anomaly
129.9127°
Eccentric anomaly
130.00389°
Mean motion
3.7059 °/min
Orbital period
97.14 mins
BSTAR
0.0024993
Loading maneuver chart data...
Computing Atmospheric mass density...
Loading historical data...
Loading historical data...
Loading historical data...
Loading historical data...
Loading historical data...
Loading historical data...
Loading historical data...

Documentation

Showing up to 5 results
|